Warroad, MN

10:46 AM CDT on July 23, 2017 (GMT -0500)
Warroad International-Carlson

Weather History for KRRT - November, 2011

Change the Weather History Date:

Tuesday, November 1, 2011

  Actual Average Record
Temperature  
Mean Temperature 42 °F -  
Max Temperature 51 °F 45 °F 65 °F (1958)
Min Temperature 33 °F 29 °F 2 °F (1951)
Degree Days  
Heating Degree Days 23    
Moisture  
Dew Point 32 °F    
Average Humidity 70    
Maximum Humidity 93    
Minimum Humidity 43    
Precipitation  
Precipitation 0.00 in - - ()
Sea Level Pressure  
Sea Level Pressure 29.85 in    
Wind  
Wind Speed 8 mph (WSW)    
Max Wind Speed 13 mph    
Max Gust Speed 18 mph    
Visibility 10 miles    
Events      
Averages and records for this station are not official NWS values.
T = Trace of Precipitation, MM = Missing Value Source: NWS Daily Summary

Daily Weather History Graph

Daily Weather History Graph

Search for Another Location

Airport or City:

Trip Planner

Search our weather history database for the weather conditions in past years. The results will help you decide how hot, cold, wet, or windy it might be!

Date:

Astronomy

Nov. 01, 2011 Rise Set
Actual Time 8:08 AM CDT 6:01 PM CDT
Civil Twilight 7:34 AM CDT 6:34 PM CDT
Nautical Twilight 6:57 AM CDT 7:11 PM CDT
Astronomical Twilight 6:20 AM CDT 7:48 PM CDT
Moon 2:00 PM CDT (11/1) 11:40 PM CDT (11/1)
Length of Visible Light 10h 59m
Length of Day
9h 52m
Waxing Crescent, 40% of the Moon is Illuminated
Nov 1
Waxing Crescent
Nov 2
First Quarter
Nov 10
Full
Nov 18
Last Quarter
Nov 25
New

Hourly Weather History & Observations

Time (CDT) Temp. Windchill Dew Point Humidity Pressure Visibility Wind Dir Wind Speed Gust Speed Precip Events Conditions
12:14 AM 44.6 °F 40.7 °F 33.8 °F 66% 29.67 in 10.0 mi SSW 6.9 mph - N/A   Scattered Clouds
12:34 AM 42.8 °F 39.3 °F 33.8 °F 70% 29.66 in 10.0 mi South 5.8 mph - N/A   Clear
12:54 AM 42.8 °F 41.1 °F 33.8 °F 70% 29.66 in 10.0 mi SSW 3.5 mph - N/A   Clear
1:14 AM 42.8 °F 39.3 °F 33.8 °F 70% 29.68 in 10.0 mi SW 5.8 mph - N/A   Clear
1:34 AM 44.6 °F 40.2 °F 33.8 °F 66% 29.68 in 10.0 mi SW 8.1 mph - N/A   Clear
1:54 AM 44.6 °F 40.2 °F 33.8 °F 66% 29.68 in 10.0 mi SW 8.1 mph - N/A   Clear
2:14 AM 44.6 °F 40.7 °F 33.8 °F 66% 29.67 in 10.0 mi SW 6.9 mph - N/A   Clear
2:33 AM 44.6 °F 39.7 °F 33.8 °F 66% 29.68 in 10.0 mi SW 9.2 mph - N/A   Clear
2:54 AM 44.6 °F 40.2 °F 33.8 °F 66% 29.68 in 10.0 mi SSW 8.1 mph - N/A   Clear
3:14 AM 42.8 °F 37.5 °F 33.8 °F 70% 29.69 in 10.0 mi SW 9.2 mph - N/A   Clear
3:33 AM 42.8 °F 37.0 °F 35.6 °F 76% 29.71 in 10.0 mi WSW 10.4 mph - N/A   Clear
3:54 AM 42.8 °F 36.6 °F 35.6 °F 76% 29.72 in 10.0 mi WSW 11.5 mph 17.3 mph N/A   Clear
4:14 AM 41.0 °F 36.4 °F 35.6 °F 81% 29.71 in 10.0 mi WSW 6.9 mph - N/A   Clear
4:33 AM 39.2 °F 33.6 °F 33.8 °F 81% 29.73 in 10.0 mi WSW 8.1 mph - N/A   Clear
4:54 AM 37.4 °F 29.8 °F 33.8 °F 87% 29.73 in 10.0 mi West 11.5 mph - N/A   Clear
5:14 AM 37.4 °F 30.8 °F 33.8 °F 87% 29.75 in 10.0 mi WSW 9.2 mph - N/A   Clear
5:34 AM 37.4 °F 32.1 °F 33.8 °F 87% 29.76 in 10.0 mi West 6.9 mph - N/A   Scattered Clouds
5:54 AM 35.6 °F 28.6 °F 33.8 °F 93% 29.76 in 10.0 mi West 9.2 mph - N/A   Clear
6:14 AM 35.6 °F 28.0 °F 32.0 °F 87% 29.77 in 10.0 mi West 10.4 mph - N/A   Clear
6:34 AM 35.6 °F 28.0 °F 32.0 °F 87% 29.79 in 10.0 mi West 10.4 mph - N/A   Clear
6:54 AM 35.6 °F 29.2 °F 30.2 °F 81% 29.79 in 10.0 mi West 8.1 mph - N/A   Scattered Clouds
7:14 AM 35.6 °F 27.5 °F 30.2 °F 81% 29.80 in 10.0 mi West 11.5 mph - N/A   Scattered Clouds
7:34 AM 35.6 °F 29.2 °F 30.2 °F 81% 29.80 in 10.0 mi West 8.1 mph - N/A   Clear
8:13 AM 33.8 °F 28.6 °F 30.2 °F 87% 29.81 in 10.0 mi West 5.8 mph - N/A   Clear
8:34 AM 33.8 °F 27.7 °F 30.2 °F 87% 29.82 in 10.0 mi WSW 6.9 mph - N/A   Clear
8:54 AM 33.8 °F 27.7 °F 30.2 °F 87% 29.83 in 10.0 mi WSW 6.9 mph - N/A   Clear
9:14 AM 33.8 °F 28.6 °F 30.2 °F 87% 29.84 in 10.0 mi WSW 5.8 mph - N/A   Clear
9:34 AM 35.6 °F 29.9 °F 30.2 °F 81% 29.86 in 10.0 mi WSW 6.9 mph - N/A   Clear
9:54 AM 35.6 °F 29.9 °F 32.0 °F 87% 29.86 in 10.0 mi WSW 6.9 mph - N/A   Clear
10:13 AM 37.4 °F 32.1 °F 33.8 °F 87% 29.86 in 10.0 mi WSW 6.9 mph - N/A   Clear
10:34 AM 37.4 °F 30.8 °F 33.8 °F 87% 29.87 in 10.0 mi WSW 9.2 mph - N/A   Clear
10:54 AM 37.4 °F 31.4 °F 33.8 °F 87% 29.88 in 10.0 mi WSW 8.1 mph - N/A   Clear
11:14 AM 39.2 °F 32.0 °F 35.6 °F 87% 29.88 in 10.0 mi West 11.5 mph - N/A   Clear
11:34 AM 42.8 °F 37.5 °F 35.6 °F 76% 29.89 in 10.0 mi West 9.2 mph - N/A   Scattered Clouds
11:53 AM 44.6 °F 39.7 °F 37.4 °F 76% 29.90 in 10.0 mi West 9.2 mph - N/A   Scattered Clouds
12:14 PM 44.6 °F 39.7 °F 37.4 °F 76% 29.90 in 10.0 mi West 9.2 mph - N/A   Scattered Clouds
12:34 PM 44.6 °F 39.2 °F 37.4 °F 76% 29.91 in 10.0 mi West 10.4 mph 16.1 mph N/A   Clear
12:54 PM 46.4 °F 41.5 °F 35.6 °F 66% 29.91 in 10.0 mi West 10.4 mph 18.4 mph N/A   Clear
1:14 PM 46.4 °F 42.4 °F 35.6 °F 66% 29.91 in 10.0 mi West 8.1 mph - N/A   Clear
1:34 PM 48.2 °F - 35.6 °F 62% 29.91 in 10.0 mi West 10.4 mph - N/A   Clear
1:54 PM 48.2 °F - 33.8 °F 58% 29.91 in 10.0 mi West 9.2 mph - N/A   Clear
2:14 PM 48.2 °F - 33.8 °F 58% 29.92 in 10.0 mi West 11.5 mph - N/A   Clear
2:34 PM 50.0 °F - 33.8 °F 54% 29.92 in 10.0 mi WNW 11.5 mph - N/A   Clear
2:54 PM 50.0 °F - 30.2 °F 47% 29.92 in 10.0 mi WNW 12.7 mph 17.3 mph N/A   Clear
3:13 PM 51.8 °F - 30.2 °F 44% 29.92 in 10.0 mi West 9.2 mph - N/A   Clear
3:34 PM 51.8 °F - 30.2 °F 44% 29.93 in 10.0 mi West 10.4 mph 16.1 mph N/A   Clear
3:54 PM 51.8 °F - 30.2 °F 44% 29.93 in 10.0 mi WNW 11.5 mph - N/A   Clear
4:14 PM 50.0 °F - 28.4 °F 43% 29.94 in 10.0 mi WNW 11.5 mph - N/A   Clear
4:34 PM 50.0 °F - 28.4 °F 43% 29.95 in 10.0 mi West 11.5 mph - N/A   Clear
4:54 PM 48.2 °F - 28.4 °F 46% 29.95 in 10.0 mi NW 12.7 mph 16.1 mph N/A   Clear
5:14 PM 48.2 °F - 28.4 °F 46% 29.95 in 10.0 mi WNW 6.9 mph - N/A   Clear
5:34 PM 48.2 °F - 28.4 °F 46% 29.96 in 10.0 mi WNW 5.8 mph - N/A   Clear
5:53 PM 46.4 °F 44.3 °F 28.4 °F 50% 29.97 in 10.0 mi WNW 4.6 mph - N/A   Clear
6:14 PM 44.6 °F - 28.4 °F 53% 29.97 in 10.0 mi Calm Calm - N/A   Clear
6:34 PM 42.8 °F - 28.4 °F 57% 29.98 in 10.0 mi Calm Calm - N/A   Clear
7:14 PM 39.2 °F - 28.4 °F 65% 30.00 in 10.0 mi Calm Calm - N/A   Clear
7:33 PM 37.4 °F - 28.4 °F 70% 30.00 in 10.0 mi Calm Calm - N/A   Clear
7:54 PM 39.2 °F 35.9 °F 28.4 °F 65% 30.01 in 10.0 mi WSW 4.6 mph - N/A   Clear
8:13 PM 39.2 °F 35.0 °F 28.4 °F 65% 30.02 in 10.0 mi WSW 5.8 mph - N/A   Clear
8:34 PM 39.2 °F 35.9 °F 28.4 °F 65% 30.02 in 10.0 mi WSW 4.6 mph - N/A   Clear
8:54 PM 37.4 °F 32.1 °F 28.4 °F 70% 30.03 in 10.0 mi West 6.9 mph - N/A   Clear
9:14 PM 37.4 °F 31.4 °F 28.4 °F 70% 30.04 in 10.0 mi WSW 8.1 mph - N/A   Clear
9:34 PM 37.4 °F 32.1 °F 28.4 °F 70% 30.05 in 10.0 mi WSW 6.9 mph - N/A   Clear
9:54 PM 37.4 °F 31.4 °F 28.4 °F 70% 30.06 in 10.0 mi West 8.1 mph - N/A   Clear
10:14 PM 37.4 °F 31.4 °F 28.4 °F 70% 30.06 in 10.0 mi West 8.1 mph - N/A   Clear
10:34 PM 37.4 °F 32.1 °F 28.4 °F 70% 30.06 in 10.0 mi WSW 6.9 mph - N/A   Clear
10:54 PM 37.4 °F 31.4 °F 28.4 °F 70% 30.06 in 10.0 mi WSW 8.1 mph - N/A   Clear
11:14 PM 35.6 °F 28.6 °F 28.4 °F 75% 30.07 in 10.0 mi West 9.2 mph - N/A   Clear
11:34 PM 35.6 °F 29.9 °F 28.4 °F 75% 30.07 in 10.0 mi West 6.9 mph - N/A   Clear
11:53 PM 35.6 °F 29.9 °F 28.4 °F 75% 30.08 in 10.0 mi WSW 6.9 mph - N/A   Clear